Location: Noordwijk
(52.2400°N, 4.4500°E)
Time: 10:04:36
(UTC+00:00)

CARTOSAT-1 - Visible Passes

Search period start: 05 June 2023 00:00
Search period end: 15 June 2023 00:00
Orbit: 611 x 615 km, 97.7° (Epoch: 04 June)

Date Brightness Start Highest point End Pass type
(mag) Time Alt. Az. Time Alt. Az. Time Alt. Az.
05 Jun 5.5 21:03:54 10° SSW 21:07:27 25° W 21:11:02 10° NW visible
06 Jun 5.9 21:19:36 10° SW 21:22:39 19° W 21:25:42 10° NW visible
07 Jun 6.2 21:35:39 10° WSW 21:37:52 14° W 21:40:04 10° NW visible
11 Jun 5.4 20:57:55 10° SSW 21:01:37 28° W 21:05:20 10° NW visible
12 Jun 5.8 21:13:32 10° SW 21:16:46 21° W 21:20:02 10° NW visible
13 Jun 6.1 21:29:25 10° SW 21:31:57 15° W 21:34:31 10° NW visible
14 Jun 6.3 21:45:57 10° WSW 21:47:11 11° W 21:48:26 10° WNW visible
